Weather History for KEYE - January, 2013

Change the Weather History Date:

Sunday, January 20, 2013

  Actual Average Record
Temperature  
Mean Temperature 33 °F 28 °F  
Max Temperature 45 °F 35 °F 57 °F (2006)
Min Temperature 21 °F 21 °F 0 °F (2008)
Degree Days  
Heating Degree Days 32 37  
Month to date heating degree days 681 740  
Since 1 July heating degree days 2746 2796  
Cooling Degree Days 0 0  
Month to date cooling degree days 0 0  
Year to date cooling degree days 0 0  
Moisture  
Dew Point 14 °F    
Average Humidity 60    
Maximum Humidity 70    
Minimum Humidity 50    
Precipitation  
Precipitation 0.00 in 0.04 in 0.15 in (2011)
Month to date precipitation 4.11 1.81  
Year to date precipitation 4.11 1.81  
Sea Level Pressure  
Sea Level Pressure 30.19 in    
Wind  
Wind Speed 14 mph (WNW)    
Max Wind Speed 28 mph    
Max Gust Speed 43 mph    
Visibility 10 miles    
Events      
T = Trace of Precipitation, MM = Missing Value Source: NWS Daily Summary

Daily Weather History Graph

Daily Weather History Graph

Search for Another Location

Airport or City:

Trip Planner

Search our weather history database for the weather conditions in past years. The results will help you decide how hot, cold, wet, or windy it might be!

Date:

Astronomy

Jan. 20, 2013 Rise Set
Actual Time 8:02 AM EST 5:50 PM EST
Civil Twilight 7:32 AM EST 6:20 PM EST
Nautical Twilight 6:59 AM EST 6:53 PM EST
Astronomical Twilight 6:27 AM EST 7:25 PM EST
Moon 12:51 PM EST (1/20) 2:34 AM EST (1/20)
Length of Visible Light 10h 47m
Length of Day
9h 48m
Waxing Gibbous, 66% of the Moon is Illuminated
Jan 20
Waxing Gibbous
Jan 26
Full
Feb 3
Last Quarter
Feb 10
New
Feb 17
First Quarter

Hourly Weather History & Observations

Time (EST) Temp. Windchill Dew Point Humidity Pressure Visibility Wind Dir Wind Speed Gust Speed Precip Events Conditions
12:53 AM 43.0 °F 37.2 °F 33.1 °F 68% 29.94 in 10.0 mi West 10.4 mph 17.3 mph N/A   Clear
1:53 AM 41.0 °F 31.4 °F 32.0 °F 70% 29.98 in 10.0 mi WNW 21.9 mph 31.1 mph N/A   Mostly Cloudy
2:53 AM 37.9 °F 26.6 °F 27.0 °F 65% 30.02 in 10.0 mi WNW 25.3 mph 42.6 mph N/A   Partly Cloudy
3:53 AM 33.1 °F 20.1 °F 18.0 °F 54% 30.07 in 10.0 mi WNW 25.3 mph 33.4 mph N/A   Clear
4:53 AM 28.9 °F 15.8 °F 12.9 °F 51% 30.11 in 10.0 mi WNW 20.7 mph 33.4 mph N/A   Clear
5:53 AM 27.0 °F 13.2 °F 12.0 °F 53% 30.12 in 10.0 mi NW 20.7 mph 28.8 mph N/A   Clear
6:53 AM 24.1 °F 9.0 °F 10.0 °F 55% 30.16 in 10.0 mi WNW 21.9 mph 29.9 mph N/A   Clear
7:53 AM 21.9 °F 7.8 °F 9.0 °F 58% 30.20 in 10.0 mi NW 17.3 mph 24.2 mph N/A   Clear
8:53 AM 21.0 °F 7.6 °F 10.9 °F 65% 30.23 in 10.0 mi WNW 15.0 mph - N/A   Clear
9:53 AM 21.9 °F 9.2 °F 10.9 °F 63% 30.27 in 10.0 mi WNW 13.8 mph - N/A   Clear
10:53 AM 21.9 °F 11.7 °F 10.0 °F 60% 30.29 in 10.0 mi NW 9.2 mph - N/A   Clear
11:53 AM 23.0 °F 11.7 °F 10.9 °F 60% 30.28 in 10.0 mi NNW 11.5 mph - N/A   Clear
12:53 PM 24.1 °F 16.0 °F 10.9 °F 57% 30.27 in 10.0 mi WNW 6.9 mph - N/A   Clear
1:53 PM 25.0 °F 18.1 °F 10.0 °F 53% 30.24 in 10.0 mi Variable 5.8 mph - N/A   Clear
2:53 PM 27.0 °F 18.0 °F 10.9 °F 51% 30.23 in 10.0 mi WNW 9.2 mph - N/A   Clear
3:53 PM 27.0 °F 16.1 °F 10.0 °F 49% 30.25 in 10.0 mi NW 12.7 mph - N/A   Partly Cloudy
4:53 PM 25.0 °F 15.5 °F 10.9 °F 55% 30.27 in 10.0 mi WNW 9.2 mph - N/A   Overcast
5:53 PM 24.1 °F 16.0 °F 12.0 °F 60% 30.26 in 10.0 mi West 6.9 mph - N/A   Overcast
6:53 PM 24.1 °F 16.0 °F 10.9 °F 57% 30.27 in 10.0 mi WNW 6.9 mph - N/A   Overcast
7:53 PM 23.0 °F 13.9 °F 12.0 °F 63% 30.26 in 10.0 mi WNW 8.1 mph - N/A   Scattered Clouds
8:53 PM 23.0 °F 11.7 °F 12.0 °F 63% 30.25 in 10.0 mi WNW 11.5 mph - N/A   Overcast
9:53 PM 23.0 °F 11.1 °F 10.9 °F 60% 30.23 in 10.0 mi NW 12.7 mph - N/A   Overcast
10:53 PM 21.9 °F 11.7 °F 10.9 °F 63% 30.25 in 10.0 mi WNW 9.2 mph - N/A   Overcast
11:53 PM 21.9 °F 10.4 °F 12.0 °F 66% 30.23 in 10.0 mi WNW 11.5 mph - N/A   Overcast